TimeGMT,TemperatureF,Dew PointF,Humidity,Sea Level PressureIn,VisibilityMPH,Wind Direction,Wind SpeedMPH,Gust SpeedMPH,PrecipitationIn,Events,Conditions,WindDirDegrees,DateUTC
12:00 AM,46,40,72,29.22,19,SW,22.4,,,,Partly Cloudy,230,2012-10-31 00:00:00
12:00 AM,46.4,39.2,76,29.21,6.2,SW,21.9,-,N/A,,Mostly Cloudy,230,2012-10-31 00:00:00
12:30 AM,46.4,39.2,76,29.18,6.2,SW,20.7,34.5,N/A,,Mostly Cloudy,230,2012-10-31 00:30:00
1:00 AM,46.4,41.0,81,29.15,6.2,SW,19.6,31.1,N/A,,Mostly Cloudy,230,2012-10-31 01:00:00
1:30 AM,46.4,41.0,81,29.15,6.2,SW,21.9,-,N/A,,Mostly Cloudy,220,2012-10-31 01:30:00
2:00 AM,46.4,39.2,76,29.12,6.2,SW,19.6,33.4,N/A,,Mostly Cloudy,220,2012-10-31 02:00:00
2:30 AM,46.4,39.2,76,29.12,6.2,SW,18.4,-,N/A,,Mostly Cloudy,220,2012-10-31 02:30:00
3:00 AM,46.4,41.0,81,29.09,6.2,SW,19.6,-,N/A,,Mostly Cloudy,220,2012-10-31 03:00:00
3:30 AM,46.4,41.0,81,29.06,6.2,SSW,20.7,-,N/A,,Mostly Cloudy,210,2012-10-31 03:30:00
4:30 AM,46.4,41.0,81,29.00,6.2,SSW,17.3,-,N/A,,Mostly Cloudy,210,2012-10-31 04:30:00
5:00 AM,48.2,41.0,76,29.00,6.2,SSW,18.4,-,N/A,,Mostly Cloudy,210,2012-10-31 05:00:00
5:30 AM,46.4,42.8,87,28.97,6.2,SSW,19.6,-,N/A,Rain,Light Rain,210,2012-10-31 05:30:00
6:00 AM,46,43,84,28.97,11,SSW,20.1,,,Rain,Light Rain,200,2012-10-31 06:00:00
6:00 AM,46.4,42.8,87,28.94,6.2,SSW,20.7,-,N/A,Rain,Light Rain,210,2012-10-31 06:00:00
6:30 AM,46.4,42.8,87,28.94,6.2,SSW,17.3,-,N/A,Rain,Light Rain,210,2012-10-31 06:30:00
7:00 AM,46.4,42.8,87,28.91,6.2,SSW,20.7,-,N/A,Rain,Light Rain,200,2012-10-31 07:00:00
7:30 AM,46.4,42.8,87,28.88,6.2,SSW,18.4,-,N/A,Rain,Light Rain,210,2012-10-31 07:30:00
8:00 AM,41.0,39.2,93,28.91,6.2,West,13.8,-,N/A,Rain,Light Rain,280,2012-10-31 08:00:00
8:30 AM,41.0,39.2,93,28.91,6.2,West,11.5,-,N/A,Rain,Light Rain,270,2012-10-31 08:30:00
9:00 AM,41.0,39.2,93,28.91,6.2,WSW,8.1,-,N/A,Rain,Light Rain,240,2012-10-31 09:00:00
9:30 AM,41.0,39.2,93,28.88,6.2,WSW,6.9,-,N/A,Rain,Light Rain,240,2012-10-31 09:30:00
10:00 AM,41.0,39.2,93,28.88,6.2,WSW,9.2,-,N/A,Rain,Light Rain,250,2012-10-31 10:00:00
10:30 AM,41.0,39.2,93,28.88,6.2,West,11.5,-,N/A,Rain,Light Rain,260,2012-10-31 10:30:00
11:00 AM,41.0,39.2,93,28.88,6.2,West,12.7,-,N/A,,Mostly Cloudy,270,2012-10-31 11:00:00
11:30 AM,41.0,39.2,93,28.88,6.2,WSW,10.4,-,N/A,,Mostly Cloudy,250,2012-10-31 11:30:00
12:00 PM,42,40,90,28.90,19,WSW,11.2,,,,Partly Cloudy,250,2012-10-31 12:00:00
12:00 PM,42.8,41.0,93,28.88,6.2,WSW,11.5,-,N/A,,Mostly Cloudy,250,2012-10-31 12:00:00
12:30 PM,42.8,41.0,93,28.88,6.2,WSW,11.5,-,N/A,,Mostly Cloudy,240,2012-10-31 12:30:00
1:00 PM,42.8,39.2,87,28.88,6.2,WSW,13.8,-,N/A,,Mostly Cloudy,250,2012-10-31 13:00:00
1:30 PM,42.8,39.2,87,28.85,6.2,WSW,12.7,-,N/A,,Mostly Cloudy,250,2012-10-31 13:30:00
2:00 PM,42.8,39.2,87,28.85,6.2,WSW,10.4,-,N/A,,Mostly Cloudy,240,2012-10-31 14:00:00
2:30 PM,42.8,41.0,93,28.85,6.2,WSW,10.4,-,N/A,Rain,Light Rain Showers,240,2012-10-31 14:30:00
3:00 PM,44.6,41.0,87,28.85,6.2,SW,9.2,-,N/A,,Overcast,230,2012-10-31 15:00:00
3:30 PM,42.8,41.0,93,28.85,6.2,SW,9.2,-,N/A,Rain,Light Rain Showers,230,2012-10-31 15:30:00
4:00 PM,44.6,41.0,87,28.82,6.2,SW,9.2,-,N/A,,Mostly Cloudy,230,2012-10-31 16:00:00
4:30 PM,44.6,39.2,81,28.82,6.2,WSW,11.5,-,N/A,,Scattered Clouds,240,2012-10-31 16:30:00
5:00 PM,42.8,39.2,87,28.82,6.2,SW,6.9,-,N/A,,Scattered Clouds,230,2012-10-31 17:00:00
5:30 PM,41.0,37.4,87,28.85,6.2,SW,10.4,-,N/A,,Mostly Cloudy,230,2012-10-31 17:30:00
6:00 PM,40,36,80,28.86,25,SW,8.9,,,,Partly Cloudy,230,2012-10-31 18:00:00
6:00 PM,39.2,35.6,87,28.82,6.2,SW,9.2,-,N/A,,Mostly Cloudy,230,2012-10-31 18:00:00
6:30 PM,39.2,35.6,87,28.82,6.2,WSW,9.2,-,N/A,,Mostly Cloudy,240,2012-10-31 18:30:00
7:00 PM,39.2,35.6,87,28.82,6.2,SW,8.1,-,N/A,,Scattered Clouds,230,2012-10-31 19:00:00
7:30 PM,39.2,35.6,87,28.82,5.0,WSW,9.2,-,N/A,,Scattered Clouds,240,2012-10-31 19:30:00
8:00 PM,37.4,35.6,93,28.82,5.0,WSW,9.2,-,N/A,,Partly Cloudy,240,2012-10-31 20:00:00
8:30 PM,37.4,35.6,93,28.82,3.7,WSW,9.2,-,N/A,,Partly Cloudy,240,2012-10-31 20:30:00
9:00 PM,37.4,35.6,93,28.82,3.1,SW,8.1,-,N/A,,Partly Cloudy,230,2012-10-31 21:00:00
9:30 PM,37.4,33.8,87,28.82,5.0,WSW,8.1,-,N/A,,Partly Cloudy,240,2012-10-31 21:30:00
10:00 PM,37.4,35.6,93,28.82,5.0,WSW,10.4,-,N/A,,Partly Cloudy,240,2012-10-31 22:00:00
10:30 PM,37.4,35.6,93,28.82,5.0,WSW,10.4,-,N/A,,Partly Cloudy,250,2012-10-31 22:30:00
11:00 PM,37.4,33.8,87,28.80,4.3,WSW,8.1,-,N/A,,Clear,250,2012-10-31 23:00:00
11:30 PM,37.4,33.8,87,28.80,4.3,WSW,5.8,-,N/A,,Partly Cloudy,250,2012-10-31 23:30:00